Waarnemingen

Advertentie
Mijn weer
Startbyn, Zweden (2181): temperatuur & dauwpunt: 11.01.2020 23:00:00 - 17.01.2020 23:00:00 (CET)Startbyn, Zweden (2181): windsnelheid & windstoten: 11.01.2020 23:00:00 - 17.01.2020 23:00:00 (CET)Startbyn, Zweden (2181): windrichting: 11.01.2020 23:00:00 - 17.01.2020 23:00:00 (CET)Startbyn, Zweden (2181): luchtdruk: 11.01.2020 23:00:00 - 17.01.2020 23:00:00 (CET)Startbyn, Zweden (2181): zicht: 11.01.2020 23:00:00 - 17.01.2020 23:00:00 (CET)Startbyn, Zweden (2181): neerslag: 11.01.2020 23:00:00 - 17.01.2020 23:00:00 (CET)
Datum & Tijd tt [°C] td [°C] ff [km/u] ff [kn] fx [km/u] fx [kn] dd ppp [hPa] vv [km] rr [mm]
17.01.2020 23:00:00 -8,0 -9,3 3 1 9 5 N 1012,0 16 0,0
17.01.2020 22:00:00 -7,9 -9,4 3 2 8 5 N 1012,5 35 0,0
17.01.2020 21:00:00 -8,3 -9,5 3 1 6 3 NNW 1012,4 39 0,0
17.01.2020 20:00:00 -8,7 -10,0 3 2 6 4 NNW 1012,8 34 0,0
17.01.2020 19:00:00 -8,7 -10,2 5 3 8 5 N 1013,0 37 0,0
17.01.2020 18:00:00 -9,0 -10,3 4 2 9 5 N 1013,1 44 0,0
17.01.2020 17:00:00 -9,5 -11,0 3 2 8 5 NNW 1013,1 38 0,0
17.01.2020 16:00:00 -10,4 -11,8 3 2 8 5 NNW 1013,2 50 0,0
17.01.2020 15:00:00 -10,3 -11,9 5 3 12 6 NNW 1012,5 50 0,0
17.01.2020 14:00:00 -10,1 -11,6 3 2 6 3 N 1012,3 50 0,0
17.01.2020 13:00:00 -9,4 -10,9 4 2 8 5 NNW 1011,8 45 0,0
17.01.2020 12:00:00 -9,9 -11,4 2 1 6 3 NW 1011,3 29 0,0
17.01.2020 11:00:00 -9,7 -11,0 0 0 6 3 N 1010,7 21 0,0
17.01.2020 10:00:00 -11,0 -12,3 3 2 6 3 NW 1010,0 36 0,0
17.01.2020 09:00:00 -10,8 -12,3 3 2 8 4 NW 1008,9 40 0,0
17.01.2020 08:00:00 -10,3 -11,9 2 1 10 6 NW 1007,7 31 0,0
17.01.2020 07:00:00 -8,3 -9,5 3 2 14 8 NNW 1006,8 27 0,0
17.01.2020 06:00:00 -7,4 -8,3 4 2 11 6 NNW 1006,0 38 0,0
17.01.2020 05:00:00 -6,7 -7,6 4 2 8 5 W 1004,9 33 0,0
17.01.2020 04:00:00 -7,1 -8,0 3 2 5 3 W 1003,6 19 0,0
17.01.2020 03:00:00 -7,3 -8,2 0 0 4 2 N 1003,3 14 0,0
17.01.2020 02:00:00 -7,4 -8,3 0 0 4 2 N 1002,5 16 0,0
17.01.2020 01:00:00 -6,5 -7,3 0 0 8 5 N 1002,0 9 0,0
17.01.2020 00:00:00 -6,2 -6,9 4 2 7 4 ZZW 1001,9 1,5 0,0
16.01.2020 23:00:00 -6,7 -7,6 0 0 3 2 N 1001,6 9 0,0
16.01.2020 22:00:00 -7,0 -7,9 4 2 10 5 Z 1001,7 9 0,0
16.01.2020 21:00:00 -7,9 -9,0 6 4 10 6 Z 1002,0 12 0,0
16.01.2020 20:00:00 -8,6 -9,8 0 0 7 4 N 1002,2 5 0,3
16.01.2020 19:00:00 -8,8 -10,0 6 3 13 7 Z 1002,8 9 0,0
16.01.2020 18:00:00 -9,3 -10,6 2 1 8 4 ZO 1002,7 29 0,0
16.01.2020 17:00:00 -9,5 -10,7 0 0 4 2 N 1002,8 31 0,0
16.01.2020 16:00:00 -10,7 -12,2 0 0 4 2 N 1002,8 36 0,0
16.01.2020 15:00:00 -9,1 -10,3 2 1 4 2 ONO 1002,5 33 0,0
16.01.2020 14:00:00 -8,9 -10,1 0 0 3 1 N 1002,5 11 0,0
16.01.2020 13:00:00 -8,9 -10,1 0 0 5 3 N 1002,3 10 0,0
16.01.2020 12:00:00 -8,6 -9,8 2 1 3 2 Z 1001,9 2,6 0,0
16.01.2020 11:00:00 -8,6 -9,8 0 0 7 4 N 1000,9 5 -
16.01.2020 10:00:00 -9,0 -10,2 2 1 4 2 NNO 1000,0 6 -
16.01.2020 09:00:00 -9,2 -10,4 0 0 4 2 N 999,3 9 0,0
16.01.2020 08:00:00 -9,5 -10,7 2 1 5 3 NNW 998,4 16 0,0
16.01.2020 07:00:00 -9,8 -11,0 0 0 5 3 N 997,7 38 0,0
16.01.2020 06:00:00 -9,9 -11,2 0 0 4 2 N 997,3 29 0,0
16.01.2020 05:00:00 -10,2 -11,5 2 1 5 3 NNW 996,5 35 0,1
16.01.2020 04:00:00 -10,2 -11,5 0 0 5 3 N 995,8 8 0,0
16.01.2020 03:00:00 -11,0 -12,3 2 1 4 2 NNW 994,9 50 0,0
16.01.2020 02:00:00 -11,0 -12,3 2 1 4 2 NNW 994,3 50 0,0
16.01.2020 01:00:00 -11,1 -12,4 2 1 8 4 NW 993,4 50 0,0
16.01.2020 00:00:00 -9,7 -11,0 4 2 11 6 NNW 992,4 50 0,0
15.01.2020 23:00:00 -8,6 -9,8 5 3 11 6 NNW 991,3 50 0,0
15.01.2020 22:00:00 -7,3 -8,1 4 2 11 6 NNW 990,4 46 0,0
15.01.2020 21:00:00 -7,2 -8,0 5 3 9 5 NNW 989,3 6 0,0
15.01.2020 20:00:00 -7,8 -8,7 5 3 11 6 NW 988,4 50 0,0
15.01.2020 19:00:00 -8,2 -9,3 3 1 9 5 NNW 987,2 50 0,0
15.01.2020 18:00:00 -7,9 -8,8 3 2 7 4 NW 986,2 50 0,0
15.01.2020 17:00:00 -7,6 -8,5 3 2 8 4 WNW 985,2 35 0,0
15.01.2020 16:00:00 -7,7 -8,5 3 1 8 4 NW 984,3 26 0,0
15.01.2020 15:00:00 -7,3 -8,0 0 0 2 1 N 983,7 0,7 0,0
15.01.2020 14:00:00 -6,2 -6,9 0 0 4 2 N 983,7 0,2 0,0
15.01.2020 13:00:00 -4,8 -5,2 0 0 5 3 N 983,3 - 0,0
15.01.2020 12:00:00 -6,2 -7,0 0 0 5 3 N 983,3 30 0,0
15.01.2020 11:00:00 -5,0 -5,4 0 0 8 4 N 983,5 - 0,0
15.01.2020 10:00:00 -4,8 -5,3 4 2 8 4 Z 983,2 50 0,0
15.01.2020 09:00:00 -3,2 -3,6 5 3 13 7 Z 983,2 50 0,0
15.01.2020 08:00:00 -3,2 -3,7 5 3 16 9 Z 983,1 50 0,0
15.01.2020 07:00:00 -3,4 -3,8 5 3 11 6 Z 982,7 50 0,0
15.01.2020 06:00:00 -2,6 -3,0 4 2 13 7 ZO 982,6 50 0,0
15.01.2020 05:00:00 -1,7 -2,3 5 3 13 7 Z 982,4 50 0,0
15.01.2020 04:00:00 -0,9 -1,5 4 2 16 9 ZZO 982,1 50 0,0
15.01.2020 03:00:00 0,2 -0,4 7 4 18 10 Z 982,0 50 0,0
15.01.2020 02:00:00 -0,3 -0,7 6 4 15 8 ZZW 981,9 50 0,0
15.01.2020 01:00:00 0,0 -0,4 7 4 16 9 Z 981,8 50 0,0
15.01.2020 00:00:00 0,2 -0,2 6 3 14 8 Z 981,7 50 0,0
14.01.2020 23:00:00 0,3 0,0 5 3 14 8 Z 981,8 9 0,0
14.01.2020 22:00:00 0,2 -0,1 7 4 21 11 Z 981,7 11 0,1
14.01.2020 21:00:00 0,1 -0,2 9 5 19 10 Z 981,8 3,4 0,5
14.01.2020 20:00:00 0,1 -0,2 9 5 19 10 Z 982,3 1,8 1,0
14.01.2020 19:00:00 0,2 -0,2 10 5 25 13 ZZO 983,4 2,0 1,0
14.01.2020 18:00:00 0,3 -0,1 9 5 23 12 ZZO 984,8 1,7 1,3
14.01.2020 17:00:00 0,3 -0,1 9 5 24 13 ZZO 986,1 1,1 1,5
14.01.2020 16:00:00 0,7 0,0 12 7 24 13 ZZO 988,1 6 0,0
14.01.2020 15:00:00 -1,0 -1,7 6 4 21 12 ZO 989,7 50 0,0
14.01.2020 14:00:00 -2,0 -3,1 12 7 23 12 Z 991,0 29 0,0
14.01.2020 13:00:00 -3,4 -4,4 8 4 19 10 Z 991,5 50 0,0
14.01.2020 12:00:00 -5,6 -6,3 6 3 14 8 ZZO 992,1 50 0,0
14.01.2020 11:00:00 -7,2 -8,1 0 0 5 3 N 992,1 50 0,0
14.01.2020 10:00:00 -6,0 -6,4 3 1 5 3 OZO 993,4 50 0,0
14.01.2020 09:00:00 -6,1 -6,9 2 1 4 2 O 993,2 50 0,0
14.01.2020 08:00:00 -5,5 -6,2 3 1 6 3 ZZO 993,8 50 0,0
14.01.2020 07:00:00 -5,0 -6,0 2 1 10 5 OZO 993,8 50 0,0
14.01.2020 06:00:00 -4,4 -5,4 6 3 11 6 ZZO 994,1 50 0,0
14.01.2020 05:00:00 -5,1 -5,9 6 3 11 6 Z 993,8 50 0,0
14.01.2020 04:00:00 -5,7 -6,5 5 3 14 7 ZZO 993,8 50 0,0
14.01.2020 03:00:00 -5,2 -6,0 4 2 10 5 OZO 993,1 50 0,0
14.01.2020 02:00:00 -6,6 -7,4 5 3 10 5 OZO 992,9 50 0,0
14.01.2020 01:00:00 -8,2 -9,3 3 1 7 4 ZO 991,9 50 0,0
14.01.2020 00:00:00 -8,7 -9,6 3 2 9 5 O 991,7 50 0,0
13.01.2020 23:00:00 -6,2 -7,3 4 2 13 7 ZO 991,5 50 0,0
13.01.2020 22:00:00 -6,6 -7,5 4 2 9 5 ZZO 990,5 50 0,0
13.01.2020 21:00:00 -6,5 -7,4 3 2 8 4 Z 989,8 50 0,0
13.01.2020 20:00:00 -5,0 -6,0 6 3 16 8 Z 989,2 50 0,0
13.01.2020 19:00:00 -4,5 -5,7 7 4 21 12 Z 988,9 50 0,0
13.01.2020 18:00:00 -4,3 -5,4 9 5 20 11 Z 988,9 50 0,0
13.01.2020 17:00:00 -4,2 -5,3 13 7 23 12 Z 989,2 50 0,0
13.01.2020 16:00:00 -5,5 -6,4 11 6 20 11 Z 990,0 50 0,0
13.01.2020 15:00:00 -6,0 -6,9 9 5 16 8 Z 990,2 50 0,0
13.01.2020 14:00:00 -5,9 -6,6 8 4 15 8 Z 990,2 50 0,0
13.01.2020 13:00:00 -6,0 -6,9 10 6 19 10 Z 990,5 50 0,0
13.01.2020 12:00:00 -6,3 -7,4 6 4 16 9 ZZO 990,7 50 0,0
13.01.2020 11:00:00 -6,7 -7,6 9 5 17 9 Z 990,7 50 0,0
13.01.2020 10:00:00 -9,6 -10,5 2 1 9 5 ZZO 991,0 50 0,0
13.01.2020 09:00:00 -8,9 -9,8 3 2 8 4 ZO 990,4 44 0,0
13.01.2020 08:00:00 -8,5 -9,4 4 2 7 4 ZO 989,9 50 0,0
13.01.2020 07:00:00 -9,9 -10,8 2 1 7 4 ZO 989,9 50 0,0
13.01.2020 06:00:00 -10,2 -11,7 3 2 6 4 OZO 989,8 50 0,0
13.01.2020 05:00:00 -10,6 -11,8 2 1 7 4 OZO 989,8 50 0,0
13.01.2020 04:00:00 -9,8 -10,9 4 2 7 4 ZO 990,0 42 0,0
13.01.2020 03:00:00 -9,5 -10,4 0 0 5 3 N 989,8 34 0,0
13.01.2020 02:00:00 -10,8 -11,8 2 1 7 4 OZO 989,8 25 0,0
13.01.2020 01:00:00 -9,4 -10,1 4 2 8 4 O 989,6 19 0,0
13.01.2020 00:00:00 -11,3 -12,5 0 0 9 5 N 989,5 15 0,0
12.01.2020 23:00:00 -9,4 -10,3 3 1 10 5 ZO 989,4 15 0,0
12.01.2020 22:00:00 -7,7 -9,0 4 2 14 7 ZO 989,2 16 0,0
12.01.2020 21:00:00 -9,0 -9,9 3 2 9 5 ZZO 988,3 13 0,0
12.01.2020 20:00:00 -7,4 -8,9 3 2 13 7 NW 987,6 19 0,0
12.01.2020 19:00:00 -5,2 -7,0 6 3 10 5 O 987,1 23 0,0
12.01.2020 18:00:00 -4,0 -5,7 4 2 10 5 O 986,8 26 0,0
12.01.2020 17:00:00 -3,8 -5,8 5 3 11 6 ZO 986,3 26 0,0
12.01.2020 16:00:00 -2,6 -6,1 4 2 29 15 Z 985,7 33 0,0
12.01.2020 15:00:00 1,0 -4,8 14 8 33 18 W 984,7 37 0,0
12.01.2020 14:00:00 1,2 -3,9 14 8 32 17 W 984,5 32 0,0
12.01.2020 13:00:00 0,4 -3,3 14 7 26 14 WZW 983,8 36 0,0
12.01.2020 12:00:00 -2,4 -5,4 7 4 22 12 ZZW 982,7 32 0,0
12.01.2020 11:00:00 -3,5 -4,0 4 2 16 9 ZW 981,4 19 0,0
12.01.2020 10:00:00 -4,2 -5,0 3 2 11 6 O 981,0 20 0,0
12.01.2020 09:00:00 -2,6 -4,0 4 2 27 15 ZO 980,2 25 0,0
12.01.2020 08:00:00 0,8 -2,1 12 7 33 18 W 979,3 29 0,0
12.01.2020 07:00:00 -0,8 -2,1 8 4 23 12 WZW 979,4 14 0,0
12.01.2020 06:00:00 -4,1 -4,8 3 1 21 11 OZO 979,4 50 0,0
12.01.2020 05:00:00 -2,1 -2,9 6 3 22 12 ZZW 979,3 50 0,0
12.01.2020 04:00:00 -4,0 -4,6 3 1 13 7 Z 979,3 50 0,0
12.01.2020 03:00:00 -2,8 -3,6 6 3 22 12 ZZO 979,3 50 0,0
12.01.2020 02:00:00 -2,6 -3,4 12 6 21 12 Z 979,6 50 0,0
12.01.2020 01:00:00 -2,6 -3,4 8 5 17 9 Z 980,4 50 0,0
12.01.2020 00:00:00 -2,3 -3,1 8 5 31 17 Z 981,0 50 0,0
11.01.2020 23:00:00 -1,4 -2,1 16 9 31 17 ZZW 981,4 35 0,0

tt = temperatuur
td = dauwpunt
ff = windsnelheid
fx = windstoten
dd = windrichting
ppp = luchtdruk
vv = zicht
rr = neerslag

Weerstations in de omgeving